Regional Weather Roundup
Issued by NWS Midland/Odessa, TX

Home | Current Version | Previous Version | Text Only | Print | Product List | Glossary On
Versions: 1 2 3 4 5 6 7 8 9 10 11 12 13 14 15 16 17 18 19 20 21 22 23 24 25 26 27 28 29 30 31 32 33 34 35 36 37 38 39 40 41 42 43 44 45 46 47 48 49 50
000
ASUS44 KMAF 170610
RWRMAF
MIDLAND AREA WEATHER ROUNDUP
NATIONAL WEATHER SERVICE MIDLAND TX
1200 AM CST TUE JAN 17 2017

...IN SOUTHWEST TEXAS AND SOUTHEAST NEW MEXICO...

CITY           SKY/WX    TMP DP  RH WIND       PRES   REMARKS
ALPINE         CLEAR     37  32  84 S6        30.13R WCI  32
ANDREWS        FAIR      41  41  99 NE8       30.11S WCI  36
ARTESIA        PTCLDY    45  45 100 SE12      30.10R WCI  39
BIG SPRING     CLOUDY    45  38  76 NE22G28   30.12R WCI  37
CARLSBAD       CLOUDY    46  41  82 NE10      30.08R
DRYDEN           N/A     54  43  66 N9        30.01R
FORT STOCKTON  CLEAR     46  39  76 E6        30.05S
GUAD PASS      NOT AVBL
HOBBS          NOT AVBL
MARFA          CLEAR     39  32  76 N9        30.08S WCI  33
MIDLAND AIRPK  CLOUDY    46  40  81 NE13      30.11R WCI  40
MIDLAND INTL   CLOUDY    46  40  79 NE16      30.09R WCI  39
ODESSA         CLEAR     45  39  79 NE15      30.10R WCI  38
PECOS          CLEAR     44  38  79 CALM      30.06S
PRESIDIO       FAIR      52  35  51 N8        29.99F
SEMINOLE       CLEAR     39  37  92 NE6       30.13S WCI  35
SNYDER         MOCLDY    42  36  81 N9        30.13R WCI  36
WINK           PTCLDY    46  38  73 E7        30.05S
$$
...OTHER STATIONS IN TEXAS...

CITY           SKY/WX    TMP DP  RH WIND       PRES   REMARKS
ABILENE        PTCLDY    44  39  82 N12       30.13R WCI  38
AMARILLO       CLOUDY    37  32  82 N12G24    30.14S WCI  29
AUSTIN         LGT RAIN  59  56  89 NE3       30.04R
BROWNSVILLE    PTCLDY    71  69  93 S9        29.98S
CORPUS CHRISTI CLOUDY    70  69  97 S10       29.98S
DALLAS FTW     CLOUDY    50  41  71 N6        30.09R
DEL RIO        MOCLDY    56  47  71 CALM      30.00R
EL PASO        PTCLDY    46  37  71 E5        30.05S
HOUSTON INT    CLOUDY    72  69  90 S7        30.02S
LUBBOCK        MOCLDY    39  33  79 N14G22    30.13R WCI  31
SAN ANGELO     PTCLDY    50  45  83 MISG      30.08R
SAN ANTONIO    CLOUDY    63  53  70 NE5       30.01S
WACO           MOCLDY    58  50  75 N9        30.08R
WICHITA FALLS  NOT AVBL
$$
...OTHER LOCATIONS IN NEW MEXICO...

CITY           SKY/WX    TMP DP  RH WIND       PRES   REMARKS
ALAMAGORDO     CLEAR     39  32  75 E7        30.08R WCI  34
ALBUQUERQUE    CLOUDY    39  36  89 E12       30.11R WCI  32
CANNON AFB     CLOUDY    34  34 100 N14       30.13R WCI  24
CLOVIS         PTCLDY    34  27  75 N13       30.13S WCI  25
HOLLOMAN AFB   CLEAR     40  37  91 E6        30.11R WCI  35
ROSWELL        CLEAR     43  35  73 N7        30.13R WCI  39
RUIDOSO        CLOUDY    34  34 100 CALM      30.13F
SANTA FE       CLOUDY    34  33  96 SE12      30.11S WCI  25
TRUTH OR CONSE CLOUDY    41  38  89 NW6       30.07S WCI  37
TUCUMCARI      CLOUDY    39  32  76 E6        30.15S WCI  35
$$




USA.gov is the U.S. government's official web portal to all federal, state and local government web resources and services.